Time,TemperatureF,DewpointF,PressureIn,WindDirection,WindDirectionDegrees,WindSpeedMPH,WindSpeedGustMPH,Humidity,HourlyPrecipIn,Conditions,Clouds,dailyrainin,SoftwareType,DateUTC
2013-05-08 00:02:00,57.0,54.0,29.90,ESE,108,0.0,4.0,89,0.00,,,0.00,,2013-05-08 05:02:00,
2013-05-08 00:12:00,57.0,54.0,29.90,ESE,108,0.0,4.0,89,0.00,,,0.00,,2013-05-08 05:12:00,
2013-05-08 00:22:00,58.0,54.0,29.90,SE,140,1.0,4.0,85,0.00,,,0.00,,2013-05-08 05:22:00,
2013-05-08 00:32:00,58.0,53.0,29.90,South,175,2.0,7.0,84,0.00,,,0.00,,2013-05-08 05:32:00,
2013-05-08 00:42:00,58.0,53.0,29.90,South,175,2.0,7.0,84,0.00,,,0.00,,2013-05-08 05:42:00,
2013-05-08 00:52:00,58.0,54.0,29.90,SSW,193,1.0,5.0,85,0.00,,,0.00,,2013-05-08 05:52:00,
2013-05-08 01:01:00,57.0,53.0,29.89,South,171,3.0,8.0,86,0.00,,,0.00,,2013-05-08 06:01:00,
2013-05-08 01:12:00,57.0,53.0,29.89,South,171,3.0,8.0,86,0.00,,,0.00,,2013-05-08 06:12:00,
2013-05-08 01:21:00,57.0,53.0,29.88,ESE,110,1.0,5.0,87,0.00,,,0.00,,2013-05-08 06:21:00,
2013-05-08 01:32:00,57.0,53.0,29.89,SSE,153,1.0,5.0,88,0.00,,,0.00,,2013-05-08 06:32:00,
2013-05-08 01:42:00,57.0,53.0,29.89,SSE,153,1.0,5.0,88,0.00,,,0.00,,2013-05-08 06:42:00,
2013-05-08 01:52:00,56.0,52.0,29.89,South,173,1.0,7.0,87,0.00,,,0.00,,2013-05-08 06:52:00,
2013-05-08 02:01:00,56.0,52.0,29.89,SSE,158,0.0,4.0,87,0.00,,,0.00,,2013-05-08 07:01:00,
2013-05-08 02:11:00,56.0,52.0,29.89,SSE,158,0.0,4.0,87,0.00,,,0.00,,2013-05-08 07:11:00,
2013-05-08 02:21:00,56.0,52.0,29.88,South,169,0.0,4.0,88,0.00,,,0.00,,2013-05-08 07:21:00,
2013-05-08 02:32:00,56.0,52.0,29.88,South,180,0.0,1.0,88,0.00,,,0.00,,2013-05-08 07:32:00,
2013-05-08 02:42:00,56.0,52.0,29.88,South,180,0.0,1.0,88,0.00,,,0.00,,2013-05-08 07:42:00,
2013-05-08 02:52:00,55.0,52.0,29.88,South,180,0.0,1.0,89,0.00,,,0.00,,2013-05-08 07:52:00,
2013-05-08 03:01:00,56.0,52.0,29.87,South,178,0.0,4.0,88,0.00,,,0.00,,2013-05-08 08:01:00,
2013-05-08 03:11:00,56.0,52.0,29.87,South,178,0.0,4.0,88,0.00,,,0.00,,2013-05-08 08:11:00,
2013-05-08 03:21:00,56.0,52.0,29.88,South,178,0.0,3.0,86,0.00,,,0.00,,2013-05-08 08:21:00,
2013-05-08 03:31:00,56.0,52.0,29.88,South,178,0.0,0.0,87,0.00,,,0.00,,2013-05-08 08:31:00,
2013-05-08 03:42:00,56.0,52.0,29.88,South,178,0.0,0.0,87,0.00,,,0.00,,2013-05-08 08:42:00,
2013-05-08 03:52:00,55.0,52.0,29.87,South,178,0.0,0.0,88,0.00,,,0.00,,2013-05-08 08:52:00,
2013-05-08 04:02:00,54.0,51.0,29.87,NNW,329,0.0,2.0,88,0.00,,,0.00,,2013-05-08 09:02:00,
2013-05-08 04:11:00,54.0,51.0,29.87,NNW,329,0.0,2.0,88,0.00,,,0.00,,2013-05-08 09:11:00,
2013-05-08 04:21:00,54.0,51.0,29.86,ENE,57,0.0,2.0,90,0.00,,,0.00,,2013-05-08 09:21:00,
2013-05-08 04:32:00,54.0,51.0,29.87,ENE,57,0.0,0.0,90,0.00,,,0.00,,2013-05-08 09:32:00,
2013-05-08 04:42:00,54.0,51.0,29.87,ENE,57,0.0,0.0,90,0.00,,,0.00,,2013-05-08 09:42:00,
2013-05-08 04:53:00,54.0,51.0,29.87,ENE,57,0.0,0.0,91,0.00,,,0.00,,2013-05-08 09:53:00,
2013-05-08 05:02:00,54.0,51.0,29.88,ENE,57,0.0,0.0,91,0.00,,,0.00,,2013-05-08 10:02:00,
2013-05-08 05:12:00,54.0,51.0,29.88,ENE,57,0.0,0.0,91,0.00,,,0.00,,2013-05-08 10:12:00,
2013-05-08 05:22:00,54.0,51.0,29.88,East,97,0.0,1.0,90,0.00,,,0.00,,2013-05-08 10:22:00,
2013-05-08 05:33:00,55.0,52.0,29.87,South,180,1.0,3.0,91,0.00,,,0.00,,2013-05-08 10:33:00,
2013-05-08 05:42:00,55.0,52.0,29.87,South,180,1.0,3.0,91,0.00,,,0.00,,2013-05-08 10:42:00,
2013-05-08 05:52:00,55.0,52.0,29.87,South,186,1.0,5.0,91,0.00,,,0.00,,2013-05-08 10:52:00,
2013-05-08 06:02:00,55.0,53.0,29.88,South,180,1.0,5.0,92,0.02,,,0.02,,2013-05-08 11:02:00,
2013-05-08 06:11:00,55.0,53.0,29.88,South,180,1.0,5.0,92,0.02,,,0.02,,2013-05-08 11:11:00,
2013-05-08 06:22:00,55.0,53.0,29.89,SSW,207,0.0,1.0,93,0.07,,,0.07,,2013-05-08 11:22:00,
2013-05-08 06:32:00,54.0,52.0,29.89,South,178,0.0,3.0,93,0.10,,,0.10,,2013-05-08 11:32:00,
2013-05-08 06:42:00,54.0,52.0,29.89,South,178,0.0,3.0,93,0.10,,,0.10,,2013-05-08 11:42:00,
2013-05-08 06:52:00,54.0,52.0,29.89,SSW,192,0.0,1.0,94,0.11,,,0.11,,2013-05-08 11:52:00,
2013-05-08 07:01:00,54.0,52.0,29.90,South,169,0.0,1.0,94,0.10,,,0.12,,2013-05-08 12:01:00,
2013-05-08 07:11:00,54.0,52.0,29.90,South,169,0.0,1.0,94,0.10,,,0.12,,2013-05-08 12:11:00,
2013-05-08 07:21:00,54.0,52.0,29.90,South,184,0.0,2.0,94,0.06,,,0.13,,2013-05-08 12:21:00,
2013-05-08 07:32:00,54.0,52.0,29.90,South,169,0.0,2.0,94,0.03,,,0.13,,2013-05-08 12:32:00,
2013-05-08 07:41:00,54.0,52.0,29.90,South,169,0.0,2.0,94,0.03,,,0.13,,2013-05-08 12:41:00,
2013-05-08 07:52:00,54.0,53.0,29.91,South,175,0.0,2.0,95,0.02,,,0.13,,2013-05-08 12:52:00,
2013-05-08 08:01:00,54.0,53.0,29.90,South,182,0.0,2.0,95,0.01,,,0.13,,2013-05-08 13:01:00,
2013-05-08 08:11:00,54.0,53.0,29.90,South,182,0.0,2.0,95,0.01,,,0.13,,2013-05-08 13:11:00,
2013-05-08 08:21:00,54.0,53.0,29.89,South,182,0.0,1.0,95,0.00,,,0.13,,2013-05-08 13:21:00,
2013-05-08 08:32:00,55.0,54.0,29.89,South,182,0.0,0.0,95,0.00,,,0.13,,2013-05-08 13:32:00,
2013-05-08 08:42:00,55.0,54.0,29.89,South,182,0.0,0.0,95,0.00,,,0.13,,2013-05-08 13:42:00,
2013-05-08 08:52:00,56.0,55.0,29.88,South,182,0.0,1.0,95,0.00,,,0.13,,2013-05-08 13:52:00,
2013-05-08 09:02:00,56.0,55.0,29.89,South,182,0.0,1.0,95,0.00,,,0.13,,2013-05-08 14:02:00,
2013-05-08 09:11:00,56.0,55.0,29.89,South,182,0.0,1.0,95,0.00,,,0.13,,2013-05-08 14:11:00,
2013-05-08 09:21:00,57.0,55.0,29.89,South,182,0.0,1.0,94,0.00,,,0.13,,2013-05-08 14:21:00,
2013-05-08 09:31:00,58.0,56.0,29.89,SSE,165,0.0,2.0,93,0.00,,,0.13,,2013-05-08 14:31:00,
2013-05-08 09:42:00,58.0,56.0,29.89,SSE,165,0.0,2.0,93,0.00,,,0.13,,2013-05-08 14:42:00,
2013-05-08 09:52:00,58.0,55.0,29.89,South,175,0.0,2.0,91,0.00,,,0.13,,2013-05-08 14:52:00,
2013-05-08 10:02:00,58.0,55.0,29.90,South,180,0.0,3.0,91,0.00,,,0.13,,2013-05-08 15:02:00,
2013-05-08 10:11:00,58.0,55.0,29.90,South,180,0.0,3.0,91,0.00,,,0.13,,2013-05-08 15:11:00,
2013-05-08 10:21:00,58.0,55.0,29.90,South,182,0.0,2.0,90,0.00,,,0.13,,2013-05-08 15:21:00,
2013-05-08 10:33:00,59.0,56.0,29.90,SE,142,1.0,4.0,91,0.00,,,0.13,,2013-05-08 15:33:00,
2013-05-08 10:42:00,59.0,56.0,29.90,SE,142,1.0,4.0,91,0.00,,,0.13,,2013-05-08 15:42:00,
2013-05-08 10:53:00,59.0,56.0,29.90,South,183,2.0,7.0,90,0.00,,,0.13,,2013-05-08 15:53:00,
2013-05-08 11:03:00,60.0,56.0,29.90,South,178,2.0,7.0,87,0.00,,,0.13,,2013-05-08 16:03:00,
2013-05-08 11:12:00,60.0,56.0,29.90,South,178,2.0,7.0,87,0.00,,,0.13,,2013-05-08 16:12:00,
2013-05-08 11:23:00,61.0,56.0,29.90,South,178,1.0,8.0,85,0.00,,,0.13,,2013-05-08 16:23:00,
2013-05-08 11:33:00,62.0,57.0,29.91,SSW,199,3.0,5.0,85,0.00,,,0.13,,2013-05-08 16:33:00,
2013-05-08 11:42:00,62.0,57.0,29.91,SSW,199,3.0,5.0,85,0.00,,,0.13,,2013-05-08 16:42:00,
2013-05-08 11:52:00,62.0,57.0,29.91,SSE,165,1.0,5.0,84,0.00,,,0.13,,2013-05-08 16:52:00,
2013-05-08 12:02:00,62.0,57.0,29.91,South,187,0.0,2.0,85,0.00,,,0.13,,2013-05-08 17:02:00,
2013-05-08 12:12:00,62.0,57.0,29.91,South,187,0.0,2.0,85,0.00,,,0.13,,2013-05-08 17:12:00,
2013-05-08 12:22:00,63.0,58.0,29.91,ENE,64,0.0,2.0,85,0.00,,,0.13,,2013-05-08 17:22:00,
2013-05-08 12:31:00,63.0,58.0,29.91,ENE,64,0.0,2.0,85,0.00,,,0.13,,2013-05-08 17:31:00,
2013-05-08 12:41:00,63.0,58.0,29.91,ENE,64,0.0,2.0,85,0.00,,,0.13,,2013-05-08 17:41:00,
2013-05-08 12:52:00,65.0,58.0,29.91,NE,43,0.0,4.0,79,0.00,,,0.13,,2013-05-08 17:52:00,
2013-05-08 13:02:00,65.0,59.0,29.90,ENE,73,2.0,6.0,80,0.00,,,0.13,,2013-05-08 18:02:00,
2013-05-08 13:11:00,65.0,59.0,29.90,ENE,73,2.0,6.0,80,0.00,,,0.13,,2013-05-08 18:11:00,
2013-05-08 13:21:00,65.0,58.0,29.90,ENE,77,1.0,5.0,79,0.00,,,0.13,,2013-05-08 18:21:00,
2013-05-08 13:31:00,65.0,59.0,29.90,ENE,59,1.0,7.0,81,0.00,,,0.13,,2013-05-08 18:31:00,
2013-05-08 13:42:00,65.0,59.0,29.90,ENE,59,1.0,7.0,81,0.00,,,0.13,,2013-05-08 18:42:00,
2013-05-08 13:51:00,65.0,59.0,29.90,ENE,59,1.0,7.0,81,0.00,,,0.13,,2013-05-08 18:51:00,
2013-05-08 14:01:00,65.0,58.0,29.89,ESE,117,2.0,8.0,78,0.00,,,0.13,,2013-05-08 19:01:00,
2013-05-08 14:11:00,65.0,58.0,29.89,ESE,117,2.0,8.0,78,0.00,,,0.13,,2013-05-08 19:11:00,
2013-05-08 14:21:00,65.0,58.0,29.89,ENE,61,4.0,9.0,79,0.00,,,0.13,,2013-05-08 19:21:00,
2013-05-08 14:32:00,64.0,58.0,29.89,NE,40,3.0,7.0,80,0.00,,,0.13,,2013-05-08 19:32:00,
2013-05-08 14:42:00,64.0,58.0,29.89,NE,40,3.0,7.0,80,0.00,,,0.13,,2013-05-08 19:42:00,
2013-05-08 14:52:00,64.0,57.0,29.88,ENE,57,2.0,7.0,79,0.00,,,0.13,,2013-05-08 19:52:00,
2013-05-08 15:02:00,64.0,57.0,29.89,NE,43,2.0,9.0,77,0.00,,,0.13,,2013-05-08 20:02:00,
2013-05-08 15:11:00,64.0,57.0,29.89,NE,43,2.0,9.0,77,0.00,,,0.13,,2013-05-08 20:11:00,
2013-05-08 15:22:00,64.0,57.0,29.88,NE,39,3.0,9.0,79,0.00,,,0.13,,2013-05-08 20:22:00,
2013-05-08 15:32:00,64.0,57.0,29.88,NNE,24,3.0,12.0,77,0.00,,,0.13,,2013-05-08 20:32:00,
2013-05-08 15:42:00,64.0,57.0,29.88,NNE,28,1.0,8.0,78,0.00,,,0.13,,2013-05-08 20:42:00,
2013-05-08 15:51:00,64.0,57.0,29.88,NNE,28,1.0,8.0,78,0.00,,,0.13,,2013-05-08 20:51:00,
2013-05-08 16:01:00,64.0,57.0,29.88,NNE,22,4.0,8.0,77,0.00,,,0.13,,2013-05-08 21:01:00,
2013-05-08 16:12:00,64.0,57.0,29.88,NNE,22,4.0,8.0,77,0.00,,,0.13,,2013-05-08 21:12:00,
2013-05-08 16:21:00,64.0,57.0,29.88,NNE,22,4.0,8.0,77,0.00,,,0.13,,2013-05-08 21:21:00,
2013-05-08 16:33:00,65.0,57.0,29.87,NNE,26,3.0,8.0,76,0.00,,,0.13,,2013-05-08 21:33:00,
2013-05-08 16:43:00,65.0,57.0,29.87,North,5,3.0,11.0,75,0.00,,,0.13,,2013-05-08 21:43:00,
2013-05-08 16:52:00,65.0,57.0,29.87,North,5,3.0,11.0,75,0.00,,,0.13,,2013-05-08 21:52:00,
2013-05-08 17:02:00,65.0,57.0,29.87,North,5,3.0,11.0,75,0.00,,,0.13,,2013-05-08 22:02:00,
2013-05-08 17:12:00,65.0,57.0,29.87,North,5,3.0,11.0,75,0.00,,,0.13,,2013-05-08 22:12:00,
2013-05-08 17:22:00,66.0,58.0,29.87,ENE,76,3.0,8.0,75,0.00,,,0.13,,2013-05-08 22:22:00,
2013-05-08 17:33:00,66.0,57.0,29.86,NNE,32,4.0,10.0,73,0.00,,,0.13,,2013-05-08 22:33:00,
2013-05-08 17:42:00,66.0,57.0,29.86,NNE,26,3.0,9.0,72,0.00,,,0.13,,2013-05-08 22:42:00,
2013-05-08 17:52:00,66.0,57.0,29.86,NNE,26,3.0,9.0,72,0.00,,,0.13,,2013-05-08 22:52:00,
2013-05-08 18:01:00,67.0,57.0,29.86,NNE,16,4.0,8.0,71,0.00,,,0.13,,2013-05-08 23:01:00,
2013-05-08 18:11:00,67.0,57.0,29.86,NNE,16,4.0,8.0,71,0.00,,,0.13,,2013-05-08 23:11:00,
2013-05-08 18:22:00,67.0,57.0,29.85,North,11,3.0,8.0,71,0.00,,,0.13,,2013-05-08 23:22:00,
2013-05-08 18:32:00,66.0,57.0,29.85,NE,35,2.0,10.0,73,0.00,,,0.13,,2013-05-08 23:32:00,
2013-05-08 18:42:00,66.0,57.0,29.85,NNE,26,4.0,8.0,73,0.00,,,0.13,,2013-05-08 23:42:00,
2013-05-08 18:52:00,66.0,57.0,29.85,NNE,26,4.0,8.0,73,0.00,,,0.13,,2013-05-08 23:52:00,
2013-05-08 19:02:00,67.0,58.0,29.85,NE,35,3.0,10.0,73,0.00,,,0.13,,2013-05-09 00:02:00,
2013-05-08 19:12:00,67.0,58.0,29.85,NE,35,3.0,10.0,73,0.00,,,0.13,,2013-05-09 00:12:00,
2013-05-08 19:21:00,67.0,58.0,29.85,NNE,24,5.0,11.0,72,0.00,,,0.13,,2013-05-09 00:21:00,
2013-05-08 19:32:00,66.0,57.0,29.85,NNE,15,5.0,10.0,72,0.00,,,0.13,,2013-05-09 00:32:00,
2013-05-08 19:42:00,66.0,57.0,29.85,North,9,3.0,9.0,74,0.00,,,0.13,,2013-05-09 00:42:00,
2013-05-08 19:52:00,66.0,57.0,29.85,North,9,3.0,9.0,74,0.00,,,0.13,,2013-05-09 00:52:00,
2013-05-08 20:01:00,65.0,57.0,29.85,NE,46,2.0,8.0,75,0.00,,,0.13,,2013-05-09 01:01:00,
2013-05-08 20:11:00,65.0,57.0,29.85,NE,46,2.0,8.0,75,0.00,,,0.13,,2013-05-09 01:11:00,
2013-05-08 20:22:00,65.0,57.0,29.85,ENE,77,1.0,4.0,76,0.00,,,0.13,,2013-05-09 01:22:00,
2013-05-08 20:32:00,64.0,57.0,29.86,ENE,73,1.0,6.0,78,0.00,,,0.13,,2013-05-09 01:32:00,
2013-05-08 20:42:00,63.0,56.0,29.86,NNE,31,0.0,3.0,79,0.00,,,0.13,,2013-05-09 01:42:00,
2013-05-08 20:52:00,63.0,56.0,29.86,NNE,31,0.0,3.0,79,0.00,,,0.13,,2013-05-09 01:52:00,
2013-05-08 21:02:00,62.0,56.0,29.85,ENE,78,0.0,3.0,80,0.00,,,0.13,,2013-05-09 02:02:00,
2013-05-08 21:11:00,62.0,56.0,29.85,ENE,78,0.0,3.0,80,0.00,,,0.13,,2013-05-09 02:11:00,
2013-05-08 21:21:00,61.0,55.0,29.84,NE,42,0.0,3.0,82,0.00,,,0.13,,2013-05-09 02:21:00,
2013-05-08 21:32:00,60.0,55.0,29.85,NNE,31,0.0,3.0,83,0.00,,,0.13,,2013-05-09 02:32:00,
2013-05-08 21:41:00,60.0,55.0,29.85,NNE,31,0.0,3.0,83,0.00,,,0.13,,2013-05-09 02:41:00,
2013-05-08 21:52:00,60.0,55.0,29.85,NNE,31,0.0,3.0,83,0.00,,,0.13,,2013-05-09 02:52:00,
2013-05-08 22:01:00,59.0,54.0,29.87,NNE,31,0.0,3.0,85,0.00,,,0.13,,2013-05-09 03:01:00,
2013-05-08 22:11:00,59.0,54.0,29.87,NNE,31,0.0,3.0,85,0.00,,,0.13,,2013-05-09 03:11:00,
2013-05-08 22:21:00,58.0,54.0,29.87,NNE,31,0.0,1.0,86,0.00,,,0.13,,2013-05-09 03:21:00,
2013-05-08 22:33:00,58.0,54.0,29.86,NNE,30,0.0,3.0,87,0.00,,,0.13,,2013-05-09 03:33:00,
2013-05-08 22:43:00,58.0,54.0,29.86,NNE,30,0.0,3.0,87,0.00,,,0.13,,2013-05-09 03:43:00,
2013-05-08 22:52:00,57.0,53.0,29.87,North,350,1.0,3.0,88,0.00,,,0.13,,2013-05-09 03:52:00,
2013-05-08 23:03:00,56.0,53.0,29.87,NNE,17,2.0,6.0,89,0.00,,,0.13,,2013-05-09 04:03:00,
2013-05-08 23:12:00,56.0,53.0,29.87,NNE,17,2.0,6.0,89,0.00,,,0.13,,2013-05-09 04:12:00,
2013-05-08 23:23:00,57.0,54.0,29.87,NE,50,1.0,8.0,89,0.00,,,0.13,,2013-05-09 04:23:00,
2013-05-08 23:33:00,56.0,53.0,29.88,NNE,30,0.0,3.0,89,0.00,,,0.13,,2013-05-09 04:33:00,
2013-05-08 23:43:00,56.0,53.0,29.88,NNE,30,0.0,3.0,89,0.00,,,0.13,,2013-05-09 04:43:00,
2013-05-08 23:52:00,56.0,53.0,29.88,NNE,20,0.0,4.0,90,0.00,,,0.13,,2013-05-09 04:52:00,